Location: Unspecified
(41.4057°N, 2.1753°E)
Time: 04:21:01
(UTC+02:00)

ISS - Visible Passes

Search period start: 30 March 2015 00:00
Search period end: 09 April 2015 00:00
Orbit: 396 x 406 km, 51.6° (Epoch: 29 March)

Date Brightness Start Highest point End Pass type
(mag) Time Alt. Az. Time Alt. Az. Time Alt. Az.
30 Mar -1.5 05:24:55 30° NE 05:24:55 30° NE 05:27:29 10° E visible
30 Mar -2.7 06:57:59 10° WNW 07:00:59 35° SW 07:03:57 10° SSE visible
31 Mar -3.5 06:06:55 48° WNW 06:07:39 72° SW 06:10:51 10° SE visible
01 Apr -0.7 05:16:33 17° ESE 05:16:33 17° ESE 05:17:23 10° ESE visible
01 Apr -1.6 06:49:13 14° WSW 06:50:19 16° SW 06:52:17 10° S visible
02 Apr -1.1 05:59:09 15° SSE 05:59:09 15° SSE 05:59:52 10° SSE visible
03 Apr -2.7 21:39:17 10° SSW 21:42:03 35° SSE 21:42:03 35° SSE visible
04 Apr -1.7 20:46:34 10° S 20:48:54 19° SE 20:51:17 10° E visible
04 Apr -2.3 22:21:53 10° WSW 22:24:38 46° WNW 22:24:38 46° WNW visible
05 Apr -3.4 21:28:12 10° SW 21:31:28 85° SE 21:34:11 14° NE visible
05 Apr -0.2 23:05:40 10° WNW 23:06:48 16° NW 23:06:48 16° NW visible
06 Apr -1.4 22:11:31 10° W 22:14:25 28° NNW 22:16:02 19° NNE visible
07 Apr -2.2 21:17:31 10° WSW 21:20:40 45° NNW 21:23:49 10° NE visible
07 Apr -0.5 22:55:35 10° NW 22:57:36 16° NNW 22:57:36 16° NNW visible
08 Apr -0.8 22:01:17 10° WNW 22:03:45 19° NNW 22:06:12 10° NNE visible
